Flag for Canada Weather past 2 weeks in Trois-Rivieres, Quebec, Canada

Now
29 °F

Chilly.


Feels Like: 18 °F
Forecast: 16 / 30 °F
Wind: 13 mph from Southwest

Location: Trois Rivieres

Current Time: Mar 4, 2015 at 11:21:23 AM

Latest Report: Mar 4, 2015 at 11:00 AM


Visibility: N/A

Pressure: 29.65 "Hg

Humidity: 75%

Dew point: 22 °F

Location of Trois-RivieresLocation

Historic Weather in Trois-Rivieres — Graph

°F

Trois-Rivieres temperature yesterday

Maximum temperature yesterday: 22 °F (at 5:00 PM)
Minimum temperature yesterday: -2 °F (at 7:00 AM)
Average temperature yesterday: 13 °F

Past Weeks' High & Low Weather Summary

 TemperatureHumidityPressure
High29 °F (Mar 4, 10:00 AM)100% (Feb 21, 6:00 PM)30.67 "Hg (Feb 21, 6:00 PM)
Low-13 °F (Feb 26, 7:00 AM)39% (Feb 20, 3:00 PM)29.51 "Hg (Mar 4, 2:00 AM)
Average10 °F73%30.09 "Hg
* Reported Feb 17 10:00 AM — Mar 4 10:00 AM, Trois-Rivieres, Weather by CustomWeather, © 2015

Note: Actual official high and low records may vary slightly from our data, if they occured in-between our weather recording intervals... More about our weather records

Advertising

Trois-Rivieres weather history for previous 24 hours

 ConditionsComfort  
Time TempWeatherWind HumidityBarometerVisibility
10:00 AM
Wed, Mar 4
29 °FChilly.14 mph68%29.65 "HgN/A
9:00 AM26 °FChilly.8 mph88%29.65 "HgN/A
8:00 AM24 °FCold.5 mph89%29.64 "HgN/A
7:00 AM21 °FCold.6 mph93%29.62 "HgN/A
6:00 AM22 °FCold.12 mph95%29.60 "HgN/A
5:00 AM24 °FCold.12 mph96%29.57 "HgN/A
4:00 AM25 °FChilly.8 mph97%29.53 "HgN/A
3:00 AM24 °FCold.5 mph98%29.52 "HgN/A
2:00 AM24 °FCold.5 mph99%29.51 "HgN/A
1:00 AM23 °FCold.3 mph98%29.53 "HgN/A
12:00 AM22 °FCold.6 mph97%29.56 "HgN/A
11:00 PM
Tue, Mar 3
21 °FCold.9 mph98%29.61 "HgN/A
10:00 PM20 °FCold.7 mph97%29.67 "HgN/A
9:00 PM20 °FCold.6 mph95%29.75 "HgN/A
8:00 PM22 °FCold.12 mph52%29.79 "HgN/A
7:00 PM22 °FCold.10 mph47%29.87 "HgN/A
6:00 PM21 °FCold.8 mph41%29.93 "HgN/A
5:00 PM22 °FCold.6 mph47%30.01 "HgN/A
4:00 PM21 °FCold.9 mph45%30.06 "HgN/A
3:00 PM21 °FCold.12 mph47%30.12 "HgN/A
1:00 PM19 °FCold.15 mph52%30.24 "HgN/A
12:00 PM18 °FCold.12 mph53%30.29 "HgN/A
11:00 AM13 °FCold.7 mph56%30.32 "HgN/A
Weather by CustomWeather, © 2015

See weather overviewHow to use our weather pages